Regional Weather Roundup
Issued by NWS

Home | Current Version | Previous Version | Text Only | Print | Product List | Glossary On
Versions: 1 2 3 4 5 6 7 8 9 10 11 12 13 14 15 16 17 18 19 20 21 22 23 24 25 26 27 28 29 30 31 32 33 34 35 36 37 38 39 40 41 42 43 44 45 46 47 48 49 50
000
ASUS43 KTOP 272108
RWRKS

WEATHER ROUNDUP FOR KANSAS
NATIONAL WEATHER SERVICE GOODLAND KS
300 PM CST MON FEB 27 2017

NOTE:  "FAIR" INDICATES FEW OR NO CLOUDS BELOW 12,000 FEET WITH NO
SIGNIFICANT WEATHER AND/OR OBSTRUCTIONS TO VISIBILITY.

KSZ001>006-013>018-027>032-041>047-272200-
NORTHWEST KANSAS

CITY           SKY/WX    TMP DP  RH WIND       PRES   REMARKS
GOODLAND       SUNNY     59   9  13 SW13G23   29.61F
HAYS             N/A     63  25  23 SW23G29   29.67F
HILL CITY      SUNNY     61  21  21 S10G18    29.67F
RUSSELL        SUNNY     64  34  32 S16       29.66F
$$

KSZ061>065-074>080-084>089-272200-
SOUTHWEST KANSAS

CITY           SKY/WX    TMP DP  RH WIND       PRES   REMARKS
DODGE CITY     SUNNY     66  20  17 SW17G26   29.68F
ELKHART          N/A     62  19  19 SW17        N/A
GARDEN CITY    SUNNY     64  16  15 SW16G22   29.68F
GREAT BEND     SUNNY     66  26  22 SW22G33   29.69F
LIBERAL        CLOUDY    66  23  19 SW26G33   29.69F
PRATT          SUNNY     54  41  60 SE14      29.72F
$$

KSZ066>073-081>083-090>101-272200-
SOUTHEAST KANSAS

CITY           SKY/WX    TMP DP  RH WIND       PRES   REMARKS
CHANUTE        CLOUDY    63  47  55 S20G26    29.85F
COFFEYVILLE    MOSUNNY   65  52  62 S20G28    29.85F
HUTCHINSON     SUNNY     59  46  62 S18       29.74F
MEDICINE LODGE   N/A     63  45  51 S13G18    29.72F
NEWTON         SUNNY     60  47  61 S22       29.76F
PARSONS        PTSUNNY   66  51  58 S14       29.85F
WICHITA INTL   MOSUNNY   59  47  64 S17       29.77F
WICHITA JABRA  MOSUNNY   59  47  64 S15G23    29.78F
WICHITA MCCONL MOSUNNY   58  46  63 S14       29.78F
WINFIELD       SUNNY     64  49  57 SE13      29.80F
$$

KSZ007>012-019>026-033>040-048>060-102>105-272200-
NORTHEAST KANSAS

CITY           SKY/WX    TMP DP  RH WIND       PRES   REMARKS
CONCORDIA      CLOUDY    56  41  57 SE15      29.71F
EMPORIA        CLOUDY    61  45  55 S22G29    29.80F
LAWRENCE         N/A    N/A N/A N/A MISG      29.83F
MANHATTAN      PTSUNNY   61  43  51 S18G26    29.75F
MARYSVILLE     CLOUDY    54  37  54 SE13G20   29.76F
OLATHE IND     MOSUNNY   62  36  37 SE17G25   29.85F
OLATHE EXE     PTSUNNY   60  36  40 SE16      29.85F
SALINA         PTSUNNY   61  47  59 S13G24    29.74F
TOPEKA BILLARD MOSUNNY   63  40  42 SE21G31   29.80F
TOPEKA FORBES  SUNNY     65  39  38 S18G28    29.80F
$$



USA.gov is the U.S. government's official web portal to all federal, state and local government web resources and services.